Bloomington, IN

8:57 AM EST on February 08, 2016 (GMT -0500)
Monroe County

Weather History for KBMG - September, 2014

Change the Weather History Date:

Sunday, September 7, 2014

  Actual Average Record
Temperature  
Mean Temperature 65 °F 69 °F  
Max Temperature 76 °F 81 °F 93 °F (2002)
Min Temperature 54 °F 57 °F 50 °F (1999)
Degree Days  
Heating Degree Days 0 1  
Month to date heating degree days 0 3  
Since 1 July heating degree days 6 10  
Cooling Degree Days 0 5  
Month to date cooling degree days 48 38  
Year to date cooling degree days 878 855  
Growing Degree Days 15 (Base 50)    
Moisture  
Dew Point 54 °F    
Average Humidity 72    
Maximum Humidity 100    
Minimum Humidity 43    
Precipitation  
Precipitation T in 0.12 in 1.10 in (2012)
Month to date precipitation 2.57 0.73  
Year to date precipitation 33.20 33.92  
Sea Level Pressure  
Sea Level Pressure 30.16 in    
Wind  
Wind Speed 5 mph (NE)    
Max Wind Speed 14 mph    
Max Gust Speed 20 mph    
Visibility 10 miles    
Events      
T = Trace of Precipitation, MM = Missing Value Source: NWS Daily Summary

Daily Weather History Graph

Daily Weather History Graph

Search for Another Location

Airport or City:

Trip Planner

Search our weather history database for the weather conditions in past years. The results will help you decide how hot, cold, wet, or windy it might be!

Date:

Astronomy

Sep. 07, 2014 Rise Set
Actual Time 7:20 AM EDT 8:07 PM EDT
Civil Twilight 6:53 AM EDT 8:34 PM EDT
Nautical Twilight 6:21 AM EDT 9:06 PM EDT
Astronomical Twilight 5:48 AM EDT 9:39 PM EDT
Moon 7:06 PM EDT (9/7) 5:33 AM EDT (9/7)
Length of Visible Light 13h 41m
Length of Day
12h 47m
Waxing Gibbous, 97% of the Moon is Illuminated
Sep 7
Waxing Gibbous
Sep 8
Full
Sep 15
Last Quarter
Sep 24
New
Oct 1
First Quarter

Hourly Weather History & Observations

Time (EDT) Temp. Dew Point Humidity Pressure Visibility Wind Dir Wind Speed Gust Speed Precip Events Conditions
12:53 AM 59.0 °F 55.0 °F 87% 30.17 in 10.0 mi NNE 5.8 mph - N/A   Clear
1:53 AM 57.9 °F 54.0 °F 87% 30.16 in 10.0 mi North 5.8 mph - N/A   Clear
2:53 AM 55.9 °F 53.1 °F 90% 30.16 in 10.0 mi North 3.5 mph - N/A   Clear
3:53 AM 55.9 °F 53.1 °F 90% 30.15 in 10.0 mi North 4.6 mph - N/A   Clear
4:53 AM 55.0 °F 52.0 °F 89% 30.15 in 10.0 mi Calm Calm - N/A   Clear
5:53 AM 55.9 °F 52.0 °F 87% 30.16 in 10.0 mi NNE 6.9 mph - N/A   Clear
6:53 AM 55.9 °F 52.0 °F 87% 30.18 in 10.0 mi NE 6.9 mph - N/A   Clear
7:53 AM 57.0 °F 53.1 °F 87% 30.19 in 10.0 mi ENE 4.6 mph - N/A   Partly Cloudy
8:53 AM 60.1 °F 55.0 °F 83% 30.20 in 10.0 mi ENE 5.8 mph - N/A   Clear
9:53 AM 64.9 °F 57.0 °F 75% 30.21 in 10.0 mi East 5.8 mph - N/A   Clear
10:53 AM 69.1 °F 57.0 °F 65% 30.21 in 10.0 mi East 11.5 mph - N/A   Clear
11:53 AM 70.0 °F 54.0 °F 57% 30.21 in 10.0 mi ESE 10.4 mph 19.6 mph N/A   Mostly Cloudy
12:53 PM 72.0 °F 53.1 °F 51% 30.20 in 10.0 mi East 9.2 mph - N/A   Mostly Cloudy
1:53 PM 73.0 °F 52.0 °F 48% 30.18 in 10.0 mi East 8.1 mph - N/A   Clear
2:53 PM 75.0 °F 54.0 °F 48% 30.17 in 10.0 mi ENE 10.4 mph - N/A   Scattered Clouds
3:53 PM 75.9 °F 52.0 °F 43% 30.14 in 10.0 mi NNE 8.1 mph 19.6 mph N/A   Partly Cloudy
5:53 PM 75.0 °F 52.0 °F 44% 30.12 in 10.0 mi NNE 6.9 mph - N/A   Clear
6:53 PM 73.0 °F 51.1 °F 46% 30.11 in 10.0 mi ENE 8.1 mph - N/A   Clear
7:53 PM 70.0 °F 53.1 °F 55% 30.11 in 10.0 mi ENE 4.6 mph - N/A   Clear
8:53 PM 59.0 °F 57.0 °F 93% 30.11 in 10.0 mi Calm Calm - 0.00 in   Clear
9:53 PM 57.9 °F 55.9 °F 93% 30.13 in 10.0 mi Calm Calm - N/A   Clear